JA1KWV-11 Weather Reports


Display with metric or nautical units.
time (UTC)temp
F
wind
direction
speed
MPH
gust
MPH
rain 1hr
in
rain 24hr
in
rain mn
in
humidity
%
barometer
mb
20260505010110 76 267 0.0 0.0 0.00 0.00 0.00 59 1019.4
20260505005310 76 267 0.0 0.0 0.00 0.00 0.00 59 1019.2
20260505004510 76 267 0.0 0.0 0.00 0.00 0.00 62 1019.5
20260505003710 76 267 0.0 0.0 0.00 0.00 0.00 63 1019.2
20260505002909 76 267 0.0 0.0 0.00 0.00 0.00 63 1019.6
20260505002109 76 267 0.0 0.0 0.00 0.00 0.00 64 1019.1
20260505001309 76 267 0.0 0.0 0.00 0.00 0.00 64 1019.3
20260505000509 76 267 0.0 0.0 0.00 0.00 0.00 66 1019.4
20260504235708 76 267 0.0 0.0 0.00 0.00 0.00 66 1019.3
20260504234908 76 267 0.0 0.0 0.00 0.00 0.00 66 1019.1
20260504234108 76 267 0.0 0.0 0.00 0.00 0.00 67 1019.1
20260504233308 76 267 0.0 0.0 0.00 0.00 0.00 67 1019.2
20260504232508 76 267 0.0 0.0 0.00 0.00 0.00 66 1019.3
20260504231707 76 267 0.0 0.0 0.00 0.00 0.00 66 1019.4
20260504230907 76 267 0.0 0.0 0.00 0.00 0.00 66 1019.3
20260504230107 75 267 0.0 0.0 0.00 0.00 0.00 65 1019.3
20260504225307 75 267 0.0 0.0 0.00 0.00 0.00 66 1019.1
20260504224506 75 267 0.0 0.0 0.00 0.00 0.00 66 1019.0
20260504223706 75 267 0.0 0.0 0.00 0.00 0.00 66 1019.1
20260504222906 75 267 0.0 0.0 0.00 0.00 0.00 66 1018.9
20260504222106 75 267 0.0 0.0 0.00 0.00 0.00 65 1018.9
20260504221306 75 267 0.0 0.0 0.00 0.00 0.00 65 1019.1
20260504220505 74 267 0.0 0.0 0.00 0.00 0.00 64 1018.8
20260504215705 74 267 0.0 0.0 0.00 0.00 0.00 64 1018.6
20260504214905 74 267 0.0 0.0 0.00 0.00 0.00 64 1018.6
20260504214105 74 267 0.0 0.0 0.00 0.00 0.00 63 1018.4
20260504213304 74 267 0.0 0.0 0.00 0.00 0.00 63 1018.5
20260504212504 74 267 0.0 0.0 0.00 0.00 0.00 63 1018.3
20260504211704 74 267 0.0 0.0 0.00 0.00 0.00 63 1018.1
20260504210904 74 267 0.0 0.0 0.00 0.00 0.00 63 1017.9
20260504210104 74 267 0.0 0.0 0.00 0.00 0.00 63 1017.9
20260504205304 74 267 0.0 0.0 0.00 0.00 0.00 63 1017.5
20260504204503 74 267 0.0 0.0 0.00 0.00 0.00 63 1017.2
20260504203703 74 267 0.0 0.0 0.00 0.00 0.00 63 1017.1
20260504202903 74 267 0.0 0.0 0.00 0.00 0.00 63 1016.6
20260504202103 74 267 0.0 0.0 0.00 0.00 0.00 63 1016.6
20260504201302 74 267 0.0 0.0 0.00 0.00 0.00 62 1016.4
20260504200502 74 267 0.0 0.0 0.00 0.00 0.00 62 1016.1
20260504195702 74 267 0.0 0.0 0.00 0.00 0.00 62 1015.9
20260504194902 74 267 0.0 0.0 0.00 0.00 0.00 62 1015.8
20260504194101 74 267 0.0 0.0 0.00 0.00 0.00 62 1015.9
20260504193301 74 267 0.0 0.0 0.00 0.00 0.00 62 1015.1
20260504192501 74 267 0.0 0.0 0.00 0.00 0.00 62 1014.9
20260504191701 74 267 0.0 0.0 0.00 0.00 0.00 63 1015.0
20260504190901 74 267 0.0 0.0 0.00 0.00 0.00 63 1014.8
20260504190100 74 267 0.0 0.0 0.00 0.00 0.00 62 1014.4
20260504185300 75 267 0.0 0.0 0.00 0.00 0.00 62 1014.4
20260504184500 75 267 0.0 0.0 0.00 0.00 0.00 63 1014.5
20260504183700 75 267 0.0 0.0 0.00 0.00 0.00 63 1014.1
20260504182859 75 267 0.0 0.0 0.00 0.00 0.00 63 1014.1
20260504182059 75 267 0.0 0.0 0.00 0.00 0.00 63 1014.2
20260504181259 75 267 0.0 0.0 0.00 0.00 0.00 63 1013.8
20260504180459 75 267 0.0 0.0 0.00 0.00 0.00 63 1013.7
20260504175659 75 267 0.0 0.0 0.00 0.00 0.00 63 1013.4
20260504174858 75 267 0.0 0.0 0.00 0.00 0.00 62 1013.1
20260504174058 75 267 0.0 0.0 0.00 0.00 0.00 63 1012.8
20260504173258 75 267 0.0 0.0 0.00 0.00 0.00 62 1012.8
20260504172458 75 267 0.0 0.0 0.00 0.00 0.00 63 1012.5
20260504171657 75 267 0.0 0.0 0.00 0.00 0.00 62 1012.5
20260504170857 75 267 0.0 0.0 0.00 0.00 0.00 63 1012.3
20260504150854 76 267 0.0 0.0 0.00 0.00 0.00 63 1009.6
20260504141252 76 267 0.0 0.0 0.00 0.00 0.00 63 1007.6
20260504140452 76 267 0.0 0.0 0.00 0.00 0.00 62 1007.6
20260504100446 77 267 0.0 0.0 0.00 0.00 0.00 66 1000.5
20260504081242 78 267 0.0 0.0 0.00 0.00 0.00 68 996.7
20260504080442 78 267 0.0 0.0 0.00 0.00 0.00 69 996.2
20260504045237 77 267 0.0 0.0 0.00 0.00 0.00 71 994.1
20260504044437 77 267 0.0 0.0 0.00 0.00 0.00 72 993.9
20260504043637 77 267 0.0 0.0 0.00 0.00 0.00 72 994.1
20260504042836 77 267 0.0 0.0 0.00 0.00 0.00 73 994.1
20260504042036 77 267 0.0 0.0 0.00 0.00 0.00 72 994.4
20260504041236 77 267 0.0 0.0 0.00 0.00 0.00 74 994.3
20260504040436 77 267 0.0 0.0 0.00 0.00 0.00 74 994.3
20260504035635 77 267 0.0 0.0 0.00 0.00 0.00 73 994.3
20260504034835 77 267 0.0 0.0 0.00 0.00 0.00 75 994.6
20260504034035 77 267 0.0 0.0 0.00 0.00 0.00 75 994.7
20260504033235 77 267 0.0 0.0 0.00 0.00 0.00 75 994.7
20260504032435 77 267 0.0 0.0 0.00 0.00 0.00 75 995.1
20260504031634 77 267 0.0 0.0 0.00 0.00 0.00 75 994.9
20260504030834 77 267 0.0 0.0 0.00 0.00 0.00 77 995.4
20260504030034 77 267 0.0 0.0 0.00 0.00 0.00 78 995.3
20260504025234 77 267 0.0 0.0 0.00 0.00 0.00 78 995.8
20260504024433 77 267 0.0 0.0 0.00 0.00 0.00 79 995.7
20260504023633 77 267 0.0 0.0 0.00 0.00 0.00 79 995.8
20260504022833 77 267 0.0 0.0 0.00 0.00 0.00 79 995.6
20260504022033 77 267 0.0 0.0 0.00 0.00 0.00 80 995.7
20260504021233 77 267 0.0 0.0 0.00 0.00 0.00 79 996.1
20260504020432 77 267 0.0 0.0 0.00 0.00 0.00 79 995.8
20260504015632 77 267 0.0 0.0 0.00 0.00 0.00 79 995.8
20260504014832 76 267 0.0 0.0 0.00 0.00 0.00 79 996.1
20260504014032 77 267 0.0 0.0 0.00 0.00 0.00 79 996.4
20260504013231 76 267 0.0 0.0 0.00 0.00 0.00 79 996.2
20260504012431 76 267 0.0 0.0 0.00 0.00 0.00 78 996.4
20260504011631 76 267 0.0 0.0 0.00 0.00 0.00 78 996.7
20260504010831 76 267 0.0 0.0 0.00 0.00 0.00 78 996.6